P/2016 A3 ( PanSTARRS )

Japanese version
Home page
Updated on March 5, 2020

---------------------------------------------------------------------

* Profile

Discovery Date January 4, 2016
Magnitude 20.5 mag
Discoverer Pan-STARRS 1 telescope (Haleakala)

* Pictures

* Orbital Elements

Epoch 2017 Mar. 28.0 TT = JDT 2457840.5                                         
T 2017 Apr. 13.59563 TT                                 Williams                
q   4.7894919            (2000.0)            P               Q                  
n   0.04592767     Peri.  338.47197     -0.97085115     -0.23882492             
a   7.7224141      Node   187.79440     +0.23588475     -0.93705064             
e   0.3797934      Incl.    8.59397     +0.04250201     -0.25475236             
P  21.5                                                                         
From 134 observations 2016 Jan. 4-2019 May 25, mean residual 0".4.              

* Magnitudes Graph

        m1 = 2.0 + 5 log d + 20.0 log r

---------------------------------------------------------------------

The orbital elements are published on M.P.E.C. 2019-T169.
The magnitudes graphs are made with Comet for Windows.

---------------------------------------------------------------------

Copyright(C) Seiichi Yoshida (comet@aerith.net). All rights reserved.